Overview Statistics Trail Chart Weather Telemetry Raw packets
 

This is the latest recevied weather packets stored in our database for station/object IW1CBG-3. If no packets are shown the sender has not sent any weather packets the latest 10 day(s).

<< 8 9 10 11 12 13 14 >>
Time Temp. Humidity Pressure Rain* Wind** Luminosity Snow
1788546376 21.67° C 89% 1028.2 hPa 0 mm - - -
1788545776 22.22° C 88% 1028.2 hPa 0 mm - - -
1788545178 22.22° C 87% 1027.8 hPa 0 mm - - -
1788544578 22.78° C 86% 1027.7 hPa 0 mm - - -
1788543978 22.78° C 84% 1027.7 hPa 0 mm - - -
1788543377 23.33° C 84% 1027.8 hPa 0 mm - - -
1788542777 23.33° C 83% 1027.3 hPa 0 mm - - -
1788542177 23.33° C 82% 1027.5 hPa 0 mm - - -
1788541577 23.33° C 82% 1027.4 hPa 0 mm - - -
1788540976 23.89° C 81% 1027.7 hPa 0 mm - - -
1788540377 23.89° C 80% 1027 hPa 0 mm - - -
1788539779 24.44° C 79% 1027.1 hPa 0 mm - - -
1788539177 24.44° C 79% 1027.2 hPa 0 mm - - -
1788538577 24.44° C 79% 1027.3 hPa 0 mm - - -
1788537978 24.44° C 78% 1027 hPa 0 mm - - -
1788537377 25° C 78% 1027 hPa 0 mm - - -
1788536777 25° C 77% 1026.9 hPa 0 mm - - -
1788536177 25.56° C 76% 1026.9 hPa 0 mm - - -
1788535577 25.56° C 76% 1026.7 hPa 0 mm - - -
1788534976 25° C 77% 1026.9 hPa 0 mm - - -
1788534378 25.56° C 77% 1026.8 hPa 0 mm - - -
1788533777 25.56° C 76% 1026.5 hPa 0 mm - - -
1788533178 25.56° C 76% 1026.6 hPa 0 mm - - -
1788532577 26.11° C 76% 1026.7 hPa 0 mm - - -
1788531977 26.11° C 75% 1026.7 hPa 0 mm - - -

* Rain latest hour (hover to see other rain measurements)
** Current wind speed in m/s (hover to see current wind gust speed)